Flag for U.S.A. Weather past 2 weeks in Hollywood, California, U.S.A.

Now
96 °F

Sunny.


Feels Like: 96 °F
Forecast: 72 / 93 °F
Wind: 8 mph from South

Location: Van Nuys Airport

Current Time: Sep 17, 2014 at 11:21:52 AM

Latest Report: Sep 17, 2014 at 10:51 AM


Visibility: 10 mi

Pressure: 29.73 "Hg

Humidity: 30%

Dew point: 60 °F

Location of HollywoodLocation

Historic Weather in Hollywood — Graph

°F

Hollywood temperature yesterday

Maximum temperature yesterday: 106 °F (at 1:51 PM)
Minimum temperature yesterday: 78 °F (at 5:51 AM)
Average temperature yesterday: 91 °F

Past Weeks' High & Low Weather Summary

 TemperatureHumidityPressure
High106 °F (Sep 14, 12:51 PM)90% (Sep 5, 4:51 AM)29.92 "Hg (Sep 5, 4:51 AM)
Low62 °F (Sep 10, 6:51 AM)11% (Sep 14, 12:51 PM)29.64 "Hg (Sep 16, 4:51 PM)
Average82 °F42%29.78 "Hg
* Reported Sep 2 9:51 AM — Sep 17 9:51 AM, Hollywood, Weather by CustomWeather, © 2014

Note: Actual official high and low records may vary slightly from our data, if they occured in-between our weather recording intervals... More about our weather records

Advertising

Hollywood weather history for previous 24 hours

 ConditionsComfort  
Time TempWeatherWind HumidityBarometerVisibility
9:51 AM
Sep 17
92 °FSunny.8 mph36%29.74 "Hg10 mi
8:51 AM88 °FSunny.No wind38%29.73 "Hg10 mi
7:51 AM82 °FSunny.No wind44%29.73 "Hg10 mi
6:51 AM80 °FClear.No wind45%29.73 "Hg10 mi
5:51 AM80 °FClear.No wind45%29.71 "Hg10 mi
4:51 AM81 °FClear.No wind44%29.70 "Hg10 mi
3:51 AM81 °FClear.No wind42%29.70 "Hg10 mi
2:51 AM81 °FClear.No wind47%29.71 "Hg10 mi
1:51 AM84 °FClear.No wind41%29.72 "Hg10 mi
12:51 AM84 °FClear.No wind40%29.72 "Hg10 mi
11:51 PM
Sep 16
86 °FClear.No wind35%29.72 "Hg10 mi
10:51 PM87 °FClear.No wind32%29.72 "Hg10 mi
9:51 PM89 °FClear.No wind30%29.71 "Hg10 mi
8:51 PM91 °FClear.No wind26%29.71 "Hg10 mi
7:51 PM91 °FSunny.No wind28%29.70 "Hg10 mi
6:51 PM92 °FSunny.6 mph27%29.69 "Hg10 mi
5:51 PM98 °FPassing clouds.14 mph21%29.67 "Hg10 mi
4:51 PM105 °FSunny.6 mph15%29.64 "Hg10 mi
3:51 PM104 °FSunny.7 mph16%29.65 "Hg10 mi
2:51 PM106 °FSunny.13 mph17%29.67 "Hg10 mi
1:51 PM106 °FScattered clouds.14 mph17%29.69 "Hg10 mi
12:51 PM104 °FPassing clouds.6 mph16%29.70 "Hg10 mi
11:51 AM101 °FSunny.No wind17%29.73 "Hg10 mi
Weather by CustomWeather, © 2014

See weather overviewHow to use our weather pages